Station History

Weather Underground - logo

Station Historical Data
Daily Summary for August 7, 2017 Units:  English    Metric   Both
« Previous Day
Next Day »
Daily Weekly Monthly Yearly Custom
  High: Low: Average:
Temperature: 97.1 °F 65.5 °F 82.1 °F
Dew Point: 66.8 °F 56.3 °F 61.7 °F
Humidity: 86 % 28 % 54 %
Wind Speed: 8.1 mph 0.0 mph 1.4 mph
Wind Gust: 8.1 mph - -
Wind:- - SW
Pressure: 29.87 in 29.76 in -
Precipitation: 0.00 in    
Historical Graphs
 
 
Tabular Data for August 7, 2017
Time Temperature Dew Point Pressure Wind Wind Speed Wind Gust Humidity Rainfall Rate (Hourly)
00:02 79.3 °F 62.7 °F 29.79 in NW 1.2 mph   57 % 0.00 in
00:07 79.3 °F 63.2 °F 29.79 in NW 1.0 mph 1.0 mph 58 % 0.00 in
00:12 79.2 °F 62.1 °F 29.79 in NW 1.2 mph 1.2 mph 56 % 0.00 in
00:18 79.1 °F 62.1 °F 29.79 in NW 1.2 mph 1.2 mph 56 % 0.00 in
00:23 78.6 °F 62.1 °F 29.79 in NW 1.2 mph 1.2 mph 57 % 0.00 in
00:28 78.0 °F 62.0 °F 29.79 in Calm     58 % 0.00 in
00:33 77.7 °F 61.7 °F 29.79 in Calm     58 % 0.00 in
00:38 77.5 °F 62.0 °F 29.79 in Calm     59 % 0.00 in
00:43 77.3 °F 62.3 °F 29.79 in Calm     60 % 0.00 in
00:48 76.8 °F 61.9 °F 29.79 in Calm     60 % 0.00 in
00:53 76.6 °F 61.2 °F 29.79 in Calm     59 % 0.00 in
00:58 76.2 °F 61.8 °F 29.79 in Calm     61 % 0.00 in
01:03 75.8 °F 61.8 °F 29.79 in Calm     62 % 0.00 in
01:08 75.4 °F 61.5 °F 29.79 in Calm     62 % 0.00 in
01:13 75.0 °F 62.0 °F 29.79 in Calm     64 % 0.00 in
01:18 74.5 °F 61.5 °F 29.79 in Calm     64 % 0.00 in
01:23 74.1 °F 61.1 °F 29.79 in Calm     64 % 0.00 in
01:28 73.8 °F 62.6 °F 29.79 in Calm     68 % 0.00 in
01:33 73.4 °F 61.8 °F 29.79 in Calm     67 % 0.00 in
01:38 72.9 °F 61.7 °F 29.80 in Calm     68 % 0.00 in
01:43 72.5 °F 61.3 °F 29.80 in Calm     68 % 0.00 in
01:53 72.2 °F 61.5 °F 29.80 in Calm     69 % 0.00 in
01:58 71.7 °F 61.8 °F 29.80 in Calm     71 % 0.00 in
02:03 71.0 °F 61.9 °F 29.80 in Calm     73 % 0.00 in
02:08 70.6 °F 61.9 °F 29.79 in Calm     74 % 0.00 in
02:13 70.3 °F 62.0 °F 29.79 in Calm     75 % 0.00 in
02:18 70.2 °F 62.3 °F 29.79 in Calm     76 % 0.00 in
02:23 70.2 °F 62.6 °F 29.79 in Calm     77 % 0.00 in
02:28 70.1 °F 62.9 °F 29.79 in Calm     78 % 0.00 in
02:33 69.9 °F 62.7 °F 29.79 in Calm     78 % 0.00 in
02:34 69.9 °F 62.7 °F 29.79 in Calm     78 % 0.00 in
02:39 70.0 °F 62.8 °F 29.79 in Calm     78 % 0.00 in
02:44 70.2 °F 63.0 °F 29.79 in Calm     78 % 0.00 in
02:49 70.4 °F 63.2 °F 29.79 in Calm     78 % 0.00 in
02:54 70.4 °F 63.2 °F 29.79 in Calm     78 % 0.00 in
02:59 70.1 °F 63.3 °F 29.79 in Calm     79 % 0.00 in
03:04 69.8 °F 63.0 °F 29.79 in Calm     79 % 0.00 in
03:14 69.3 °F 62.9 °F 29.79 in Calm     80 % 0.00 in
03:24 68.9 °F 62.8 °F 29.79 in Calm     81 % 0.00 in
03:29 68.8 °F 63.1 °F 29.79 in Calm     82 % 0.00 in
03:34 68.5 °F 62.8 °F 29.79 in Calm     82 % 0.00 in
03:39 68.5 °F 63.5 °F 29.79 in Calm     84 % 0.00 in
03:44 68.4 °F 63.0 °F 29.79 in Calm     83 % 0.00 in
03:49 68.4 °F 63.0 °F 29.79 in Calm     83 % 0.00 in
03:54 68.3 °F 62.9 °F 29.79 in Calm     83 % 0.00 in
03:59 68.1 °F 62.7 °F 29.79 in Calm     83 % 0.00 in
04:04 68.1 °F 62.7 °F 29.79 in Calm     83 % 0.00 in
04:09 68.1 °F 62.7 °F 29.80 in Calm     83 % 0.00 in
04:14 68.0 °F 62.6 °F 29.80 in Calm     83 % 0.00 in
04:19 67.7 °F 62.7 °F 29.80 in Calm     84 % 0.00 in
04:24 67.5 °F 62.5 °F 29.80 in Calm     84 % 0.00 in
04:29 67.4 °F 62.4 °F 29.80 in Calm     84 % 0.00 in
04:34 67.2 °F 62.5 °F 29.80 in Calm     85 % 0.00 in
04:39 67.1 °F 62.4 °F 29.80 in Calm     85 % 0.00 in
04:44 67.0 °F 62.3 °F 29.80 in Calm     85 % 0.00 in
04:49 66.9 °F 62.2 °F 29.80 in Calm     85 % 0.00 in
04:54 66.8 °F 62.1 °F 29.80 in Calm     85 % 0.00 in
04:59 66.8 °F 62.1 °F 29.80 in Calm     85 % 0.00 in
05:04 66.7 °F 62.0 °F 29.80 in Calm     85 % 0.00 in
05:09 66.6 °F 61.9 °F 29.80 in Calm     85 % 0.00 in
05:14 66.4 °F 61.8 °F 29.81 in Calm     85 % 0.00 in
05:19 66.3 °F 61.7 °F 29.81 in SE 1.2 mph   85 % 0.00 in
05:24 66.2 °F 61.6 °F 29.81 in SE 1.2 mph 1.2 mph 85 % 0.00 in
05:29 66.0 °F 61.4 °F 29.81 in SE 1.2 mph 1.2 mph 85 % 0.00 in
05:34 65.9 °F 61.6 °F 29.81 in Calm     86 % 0.00 in
05:39 65.8 °F 61.5 °F 29.82 in Calm     86 % 0.00 in
05:44 65.8 °F 61.5 °F 29.82 in Calm     86 % 0.00 in
05:49 65.6 °F 61.3 °F 29.82 in SE 1.2 mph   86 % 0.00 in
05:54 65.6 °F 61.3 °F 29.82 in Calm     86 % 0.00 in
05:59 65.5 °F 61.2 °F 29.82 in Calm     86 % 0.00 in
06:09 65.6 °F 61.3 °F 29.82 in Calm     86 % 0.00 in
06:14 65.6 °F 61.0 °F 29.82 in Calm     85 % 0.00 in
06:19 65.8 °F 61.2 °F 29.83 in SE 1.2 mph   85 % 0.00 in
06:24 65.9 °F 60.9 °F 29.83 in SE 1.2 mph   84 % 0.00 in
06:29 65.9 °F 60.9 °F 29.83 in Calm     84 % 0.00 in
06:34 66.0 °F 61.0 °F 29.83 in Calm     84 % 0.00 in
06:39 66.0 °F 61.0 °F 29.83 in Calm     84 % 0.00 in
06:44 66.1 °F 60.8 °F 29.83 in Calm     83 % 0.00 in
06:49 66.2 °F 60.9 °F 29.83 in Calm     83 % 0.00 in
06:54 66.3 °F 61.0 °F 29.83 in Calm     83 % 0.00 in
06:59 66.6 °F 61.3 °F 29.84 in Calm   0.1 mph 83 % 0.00 in
07:05 66.9 °F 61.6 °F 29.84 in Calm     83 % 0.00 in
07:10 67.2 °F 61.9 °F 29.84 in Calm     83 % 0.00 in
07:15 67.5 °F 61.5 °F 29.84 in ESE 1.2 mph   81 % 0.00 in
07:20 68.3 °F 61.5 °F 29.84 in ESE 1.2 mph 1.2 mph 79 % 0.00 in
07:25 69.4 °F 61.9 °F 29.84 in SE 1.2 mph 1.2 mph 77 % 0.00 in
07:30 70.5 °F 62.2 °F 29.84 in SE 2.0 mph 2.0 mph 75 % 0.00 in
07:35 71.4 °F 61.9 °F 29.84 in ESE 2.3 mph 2.3 mph 72 % 0.00 in
07:40 72.0 °F 62.1 °F 29.85 in SSE 3.5 mph 3.5 mph 71 % 0.00 in
07:45 72.3 °F 61.6 °F 29.85 in ESE 1.2 mph   69 % 0.00 in
07:50 72.9 °F 62.1 °F 29.85 in ESE 1.2 mph 1.2 mph 69 % 0.00 in
07:55 73.0 °F 61.8 °F 29.85 in SSE 2.3 mph 2.3 mph 68 % 0.00 in
08:00 73.3 °F 61.7 °F 29.85 in SE 2.3 mph 2.3 mph 67 % 0.00 in
08:05 74.1 °F 61.6 °F 29.86 in East 1.2 mph 1.2 mph 65 % 0.00 in
08:10 74.3 °F 62.2 °F 29.85 in ENE 2.3 mph   66 % 0.00 in
08:15 74.9 °F 61.5 °F 29.86 in ESE 1.2 mph 1.2 mph 63 % 0.00 in
08:20 75.7 °F 61.3 °F 29.86 in SSW 1.2 mph   61 % 0.00 in
08:25 76.4 °F 61.0 °F 29.86 in South 2.3 mph 2.3 mph 59 % 0.00 in
08:30 77.0 °F 60.6 °F 29.86 in NNW 1.2 mph   57 % 0.00 in
08:35 77.6 °F 60.2 °F 29.86 in South 3.5 mph 3.5 mph 55 % 0.00 in
08:40 77.7 °F 60.2 °F 29.86 in East 1.2 mph 1.2 mph 55 % 0.00 in
08:45 77.6 °F 60.2 °F 29.86 in East 1.2 mph 1.2 mph 55 % 0.00 in
08:50 78.3 °F 59.8 °F 29.86 in SE 2.3 mph   53 % 0.00 in
08:55 78.3 °F 59.2 °F 29.86 in ESE 3.5 mph 3.5 mph 52 % 0.00 in
09:00 78.2 °F 58.6 °F 29.86 in East 3.5 mph 3.5 mph 51 % 0.00 in
09:05 78.5 °F 59.9 °F 29.86 in SSE 1.2 mph 1.2 mph 53 % 0.00 in
09:10 79.2 °F 61.1 °F 29.86 in SE 1.2 mph 1.2 mph 54 % 0.00 in
09:15 79.4 °F 59.7 °F 29.86 in NW 3.0 mph 3.0 mph 51 % 0.00 in
09:20 79.3 °F 60.1 °F 29.87 in WNW 1.2 mph   52 % 0.00 in
09:25 79.6 °F 59.9 °F 29.87 in West 2.0 mph 2.0 mph 51 % 0.00 in
09:30 80.0 °F 59.7 °F 29.87 in SE 2.3 mph 2.3 mph 50 % 0.00 in
09:35 80.7 °F 60.3 °F 29.87 in South 1.2 mph 1.2 mph 50 % 0.00 in
09:45 81.4 °F 59.8 °F 29.87 in ESE 3.5 mph 3.5 mph 48 % 0.00 in
09:50 81.6 °F 58.8 °F 29.87 in South 2.3 mph 2.3 mph 46 % 0.00 in
09:55 81.6 °F 58.8 °F 29.87 in SE 3.5 mph 3.5 mph 46 % 0.00 in
10:00 81.7 °F 60.1 °F 29.87 in SE 2.3 mph 2.3 mph 48 % 0.00 in
10:05 82.0 °F 59.2 °F 29.87 in South 2.3 mph 2.3 mph 46 % 0.00 in
10:10 82.0 °F 58.6 °F 29.87 in WSW 3.5 mph 3.5 mph 45 % 0.00 in
10:15 82.4 °F 58.3 °F 29.87 in East 3.5 mph 3.5 mph 44 % 0.00 in
10:21 82.8 °F 59.3 °F 29.87 in SSW 3.5 mph 3.5 mph 45 % 0.00 in
10:26 83.1 °F 58.9 °F 29.87 in SSW 3.5 mph 3.5 mph 44 % 0.00 in
10:30 83.4 °F 58.6 °F 29.87 in ESE 3.0 mph 3.0 mph 43 % 0.00 in
10:36 83.6 °F 58.1 °F 29.87 in SSW 3.5 mph 3.5 mph 42 % 0.00 in
10:41 83.9 °F 58.3 °F 29.86 in South 8.1 mph 8.1 mph 42 % 0.00 in
10:46 84.1 °F 58.5 °F 29.86 in SSW 2.3 mph 2.3 mph 42 % 0.00 in
10:51 84.6 °F 58.3 °F 29.86 in SSE 6.9 mph 6.9 mph 41 % 0.00 in
10:56 84.8 °F 58.5 °F 29.86 in SE 2.3 mph 2.3 mph 41 % 0.00 in
11:01 85.4 °F 57.6 °F 29.86 in ESE 3.5 mph 3.5 mph 39 % 0.00 in
11:06 85.6 °F 59.2 °F 29.86 in SSE 3.5 mph 3.5 mph 41 % 0.00 in
11:11 86.1 °F 59.0 °F 29.86 in East 2.3 mph 2.3 mph 40 % 0.00 in
11:16 86.7 °F 58.8 °F 29.86 in ENE 1.2 mph 1.2 mph 39 % 0.00 in
11:21 86.7 °F 58.1 °F 29.86 in WSW 3.5 mph 3.5 mph 38 % 0.00 in
11:31 86.9 °F 56.7 °F 29.86 in SW 1.2 mph 1.2 mph 36 % 0.00 in
11:36 87.6 °F 57.3 °F 29.86 in North 3.0 mph 3.0 mph 36 % 0.00 in
11:41 87.7 °F 57.4 °F 29.86 in SSE 3.5 mph 3.5 mph 36 % 0.00 in
11:46 87.9 °F 56.8 °F 29.86 in SSE 3.5 mph 3.5 mph 35 % 0.00 in
11:51 88.1 °F 58.6 °F 29.86 in North 2.3 mph 2.3 mph 37 % 0.00 in
11:56 88.1 °F 58.6 °F 29.85 in SSW 3.5 mph 3.5 mph 37 % 0.00 in
12:01 88.4 °F 58.8 °F 29.85 in SSE 3.5 mph 3.5 mph 37 % 0.00 in
12:06 89.0 °F 60.1 °F 29.85 in ESE 1.2 mph 1.2 mph 38 % 0.00 in
12:11 89.2 °F 58.8 °F 29.85 in ESE 1.2 mph 1.2 mph 36 % 0.00 in
12:16 89.0 °F 57.8 °F 29.85 in SSW 1.2 mph 1.2 mph 35 % 0.00 in
12:21 89.6 °F 61.4 °F 29.85 in South 1.2 mph   39 % 0.00 in
12:26 90.0 °F 58.7 °F 29.85 in SW 3.5 mph 3.5 mph 35 % 0.00 in
12:31 90.3 °F 61.2 °F 29.85 in East 3.5 mph 3.5 mph 38 % 0.00 in
12:36 90.7 °F 61.6 °F 29.85 in SW 3.5 mph   38 % 0.00 in
12:41 90.5 °F 59.9 °F 29.85 in SE 3.5 mph 3.5 mph 36 % 0.00 in
12:46 90.9 °F 61.8 °F 29.84 in SSE 3.0 mph 3.0 mph 38 % 0.00 in
12:51 91.1 °F 62.0 °F 29.84 in SE 2.3 mph 2.3 mph 38 % 0.00 in
13:01 92.3 °F 59.0 °F 29.84 in North 2.3 mph 2.3 mph 33 % 0.00 in
13:06 92.2 °F 58.9 °F 29.84 in ESE 2.3 mph 2.3 mph 33 % 0.00 in
13:11 92.9 °F 58.7 °F 29.84 in ENE 2.3 mph 2.3 mph 32 % 0.00 in
13:16 93.5 °F 57.4 °F 29.84 in SE 2.3 mph 2.3 mph 30 % 0.00 in
13:21 93.7 °F 57.6 °F 29.84 in ESE 3.5 mph 3.5 mph 30 % 0.00 in
13:26 93.3 °F 56.3 °F 29.83 in East 1.2 mph 1.2 mph 29 % 0.00 in
13:31 93.1 °F 57.1 °F 29.83 in ENE 3.5 mph 3.5 mph 30 % 0.00 in
13:36 93.5 °F 59.2 °F 29.83 in South 3.5 mph 3.5 mph 32 % 0.00 in
13:41 92.9 °F 57.8 °F 29.83 in WNW 3.5 mph 3.5 mph 31 % 0.00 in
13:46 92.9 °F 58.7 °F 29.83 in WNW 1.2 mph   32 % 0.00 in
13:51 93.4 °F 59.1 °F 29.83 in South 2.3 mph 2.3 mph 32 % 0.00 in
13:57 93.7 °F 59.4 °F 29.83 in NNW 1.2 mph 1.2 mph 32 % 0.00 in
14:02 93.6 °F 59.3 °F 29.82 in NE 2.3 mph 2.3 mph 32 % 0.00 in
14:07 94.1 °F 58.8 °F 29.82 in ESE 2.3 mph 2.3 mph 31 % 0.00 in
14:12 94.1 °F 57.9 °F 29.82 in ENE 2.3 mph 2.3 mph 30 % 0.00 in
14:17 94.1 °F 57.9 °F 29.82 in NNW 3.5 mph 3.5 mph 30 % 0.00 in
14:22 94.1 °F 57.9 °F 29.82 in WSW 1.2 mph 1.2 mph 30 % 0.00 in
14:27 94.9 °F 59.5 °F 29.82 in SSE 3.5 mph 3.5 mph 31 % 0.00 in
14:32 95.4 °F 57.1 °F 29.82 in NNW 3.5 mph 3.5 mph 28 % 0.00 in
14:37 95.0 °F 59.6 °F 29.82 in NE 1.2 mph 1.2 mph 31 % 0.00 in
14:42 95.4 °F 59.1 °F 29.81 in SW 2.3 mph 2.3 mph 30 % 0.00 in
14:47 96.0 °F 60.5 °F 29.81 in SSW 2.3 mph 2.3 mph 31 % 0.00 in
14:52 96.2 °F 59.7 °F 29.81 in NW 2.3 mph 2.3 mph 30 % 0.00 in
14:57 96.1 °F 59.7 °F 29.81 in North 3.5 mph 3.5 mph 30 % 0.00 in
15:02 95.7 °F 61.1 °F 29.81 in WSW 2.0 mph 2.0 mph 32 % 0.00 in
15:07 95.7 °F 61.1 °F 29.81 in NNW 2.3 mph 2.3 mph 32 % 0.00 in
15:12 95.7 °F 60.2 °F 29.81 in North 3.5 mph 3.5 mph 31 % 0.00 in
15:17 96.1 °F 61.5 °F 29.80 in ENE 1.2 mph 1.2 mph 32 % 0.00 in
15:22 96.6 °F 61.0 °F 29.80 in NNW 3.5 mph 3.5 mph 31 % 0.00 in
15:27 96.6 °F 60.1 °F 29.80 in NW 2.3 mph 2.3 mph 30 % 0.00 in
15:32 96.5 °F 61.8 °F 29.80 in NNE 1.2 mph 1.2 mph 32 % 0.00 in
15:37 96.9 °F 60.3 °F 29.80 in NNW 3.5 mph 3.5 mph 30 % 0.00 in
15:42 97.1 °F 61.4 °F 29.80 in North 2.0 mph 2.0 mph 31 % 0.00 in
15:47 97.0 °F 59.5 °F 29.79 in WNW 3.5 mph 3.5 mph 29 % 0.00 in
15:52 96.8 °F 60.3 °F 29.79 in WSW 3.5 mph 3.5 mph 30 % 0.00 in
15:57 96.9 °F 61.3 °F 29.79 in NW 4.6 mph 4.6 mph 31 % 0.00 in
16:02 96.7 °F 61.1 °F 29.79 in North 2.3 mph 2.3 mph 31 % 0.00 in
16:07 96.8 °F 60.3 °F 29.79 in NW 3.5 mph 3.5 mph 30 % 0.00 in
16:12 96.6 °F 60.1 °F 29.79 in North 4.6 mph 4.6 mph 30 % 0.00 in
16:17 96.2 °F 59.7 °F 29.79 in NW 3.5 mph 3.5 mph 30 % 0.00 in
16:22 96.1 °F 60.6 °F 29.78 in West 4.6 mph 4.6 mph 31 % 0.00 in
16:27 95.8 °F 61.2 °F 29.78 in NW 6.0 mph 6.0 mph 32 % 0.00 in
16:32 95.6 °F 61.9 °F 29.78 in NNW 4.0 mph 4.0 mph 33 % 0.00 in
16:37 95.5 °F 61.0 °F 29.78 in WNW 4.6 mph 4.6 mph 32 % 0.00 in
16:42 95.6 °F 61.0 °F 29.78 in NW 4.6 mph 4.6 mph 32 % 0.00 in
16:47 95.5 °F 61.8 °F 29.78 in NW 6.9 mph 6.9 mph 33 % 0.00 in
16:52 95.4 °F 61.7 °F 29.78 in WNW 3.5 mph 3.5 mph 33 % 0.00 in
16:57 95.4 °F 60.9 °F 29.78 in NNW 4.6 mph 4.6 mph 32 % 0.00 in
17:02 95.7 °F 61.1 °F 29.78 in WNW 3.5 mph 3.5 mph 32 % 0.00 in
17:07 95.9 °F 61.3 °F 29.77 in WNW 4.0 mph 4.0 mph 32 % 0.00 in
17:12 95.7 °F 60.2 °F 29.77 in WNW 3.5 mph 3.5 mph 31 % 0.00 in
17:17 95.5 °F 61.0 °F 29.77 in NW 4.0 mph 4.0 mph 32 % 0.00 in
17:22 95.3 °F 61.6 °F 29.77 in NW 3.5 mph 3.5 mph 33 % 0.00 in
17:27 95.5 °F 61.8 °F 29.77 in NW 3.5 mph 3.5 mph 33 % 0.00 in
17:32 95.7 °F 61.1 °F 29.77 in NW 3.5 mph 3.5 mph 32 % 0.00 in
17:37 95.5 °F 61.8 °F 29.77 in NW 3.5 mph 3.5 mph 33 % 0.00 in
17:42 95.5 °F 61.0 °F 29.77 in NW 2.3 mph 2.3 mph 32 % 0.00 in
17:47 95.5 °F 61.0 °F 29.76 in NW 3.5 mph 3.5 mph 32 % 0.00 in
17:52 95.4 °F 61.7 °F 29.76 in NW 3.5 mph 3.5 mph 33 % 0.00 in
17:57 95.3 °F 61.6 °F 29.76 in NW 3.5 mph 3.5 mph 33 % 0.00 in
18:02 95.2 °F 60.7 °F 29.76 in NW 3.5 mph 3.5 mph 32 % 0.00 in
18:08 95.4 °F 61.7 °F 29.76 in West 2.3 mph 2.3 mph 33 % 0.00 in
18:13 95.3 °F 61.6 °F 29.76 in North 2.3 mph 2.3 mph 33 % 0.00 in
18:18 95.5 °F 61.0 °F 29.76 in NW 3.5 mph 3.5 mph 32 % 0.00 in
18:23 95.2 °F 60.7 °F 29.76 in NW 2.3 mph 2.3 mph 32 % 0.00 in
18:28 95.0 °F 62.2 °F 29.76 in NW 2.3 mph 2.3 mph 34 % 0.00 in
18:33 95.0 °F 62.2 °F 29.76 in WNW 2.3 mph 2.3 mph 34 % 0.00 in
18:38 94.8 °F 62.1 °F 29.76 in WNW 1.2 mph 1.2 mph 34 % 0.00 in
18:43 94.7 °F 62.8 °F 29.76 in NNW 2.3 mph 2.3 mph 35 % 0.00 in
18:48 94.5 °F 62.6 °F 29.76 in WNW 1.2 mph 1.2 mph 35 % 0.00 in
18:53 94.1 °F 63.1 °F 29.76 in WNW 1.2 mph 1.2 mph 36 % 0.00 in
18:58 93.4 °F 62.5 °F 29.76 in WNW 2.3 mph 2.3 mph 36 % 0.00 in
19:03 92.9 °F 62.8 °F 29.76 in NW 1.0 mph 1.0 mph 37 % 0.00 in
19:08 92.5 °F 63.2 °F 29.76 in West 1.2 mph   38 % 0.00 in
19:13 92.1 °F 62.8 °F 29.76 in NW 1.2 mph 1.2 mph 38 % 0.00 in
19:18 91.8 °F 63.3 °F 29.77 in Calm     39 % 0.00 in
19:24 91.4 °F 63.0 °F 29.77 in Calm   0.1 mph 39 % 0.00 in
19:29 91.0 °F 64.0 °F 29.77 in Calm     41 % 0.00 in
19:34 90.7 °F 63.1 °F 29.77 in Calm     40 % 0.00 in
19:39 90.3 °F 63.4 °F 29.77 in Calm     41 % 0.00 in
19:44 90.0 °F 63.8 °F 29.77 in Calm     42 % 0.00 in
19:49 89.7 °F 63.6 °F 29.77 in Calm     42 % 0.00 in
19:54 89.2 °F 63.8 °F 29.77 in Calm     43 % 0.00 in
19:59 88.7 °F 64.6 °F 29.77 in Calm     45 % 0.00 in
20:04 88.1 °F 64.7 °F 29.77 in Calm     46 % 0.00 in
20:09 87.4 °F 64.7 °F 29.77 in Calm     47 % 0.00 in
20:15 86.7 °F 64.7 °F 29.77 in Calm     48 % 0.00 in
20:20 86.0 °F 65.8 °F 29.78 in Calm     51 % 0.00 in
20:22 85.7 °F 65.5 °F 29.78 in Calm     51 % 0.00 in
20:23 85.6 °F 65.4 °F 29.78 in Calm     51 % 0.00 in
20:25 85.4 °F 65.2 °F 29.78 in Calm     51 % 0.00 in
20:27 85.2 °F 65.0 °F 29.78 in Calm     51 % 0.00 in
20:30 84.9 °F 66.4 °F 29.78 in Calm     54 % 0.00 in
20:32 84.7 °F 65.1 °F 29.78 in Calm     52 % 0.00 in
20:37 84.4 °F 65.4 °F 29.78 in Calm     53 % 0.00 in
20:42 84.1 °F 66.2 °F 29.78 in Calm     55 % 0.00 in
20:44 83.9 °F 66.0 °F 29.78 in Calm     55 % 0.00 in
20:49 83.6 °F 66.8 °F 29.79 in Calm     57 % 0.00 in
20:54 83.3 °F 66.5 °F 29.79 in Calm     57 % 0.00 in
20:59 83.0 °F 66.7 °F 29.79 in Calm     58 % 0.00 in
21:04 83.4 °F 65.0 °F 29.79 in Calm     54 % 0.00 in
21:09 83.6 °F 65.2 °F 29.79 in Calm     54 % 0.00 in
21:14 83.6 °F 65.2 °F 29.80 in Calm     54 % 0.00 in
21:19 83.4 °F 65.5 °F 29.80 in Calm     55 % 0.00 in
21:24 83.2 °F 65.4 °F 29.80 in Calm     55 % 0.00 in
21:29 82.8 °F 64.5 °F 29.80 in Calm     54 % 0.00 in
21:34 82.7 °F 64.9 °F 29.81 in Calm     55 % 0.00 in
21:39 82.8 °F 65.0 °F 29.81 in Calm     55 % 0.00 in
21:44 82.9 °F 65.1 °F 29.81 in Calm     55 % 0.00 in
21:49 83.2 °F 65.4 °F 29.81 in Calm     55 % 0.00 in
21:54 83.0 °F 64.6 °F 29.81 in Calm     54 % 0.00 in
21:59 83.0 °F 64.6 °F 29.81 in Calm     54 % 0.00 in
22:04 83.1 °F 65.3 °F 29.81 in Calm     55 % 0.00 in
22:09 82.8 °F 66.0 °F 29.81 in Calm     57 % 0.00 in
22:14 82.2 °F 65.4 °F 29.82 in Calm     57 % 0.00 in
22:19 81.4 °F 66.2 °F 29.82 in Calm     60 % 0.00 in
22:24 80.6 °F 66.4 °F 29.82 in Calm     62 % 0.00 in
22:29 79.8 °F 66.1 °F 29.82 in Calm     63 % 0.00 in
22:34 79.3 °F 66.1 °F 29.82 in Calm     64 % 0.00 in
22:39 79.0 °F 66.2 °F 29.82 in Calm     65 % 0.00 in
22:40 78.9 °F 66.6 °F 29.82 in Calm     66 % 0.00 in
22:45 78.6 °F 66.3 °F 29.82 in Calm     66 % 0.00 in
22:50 78.2 °F 65.9 °F 29.82 in Calm     66 % 0.00 in
22:55 78.0 °F 65.7 °F 29.82 in Calm     66 % 0.00 in
23:00 77.8 °F 65.1 °F 29.82 in Calm     65 % 0.00 in
23:05 78.1 °F 64.9 °F 29.82 in Calm     64 % 0.00 in
23:10 78.8 °F 65.1 °F 29.82 in Calm     63 % 0.00 in
23:16 78.9 °F 64.8 °F 29.82 in Calm     62 % 0.00 in
23:21 78.8 °F 64.2 °F 29.82 in NW 1.2 mph 1.2 mph 61 % 0.00 in
23:26 79.2 °F 63.6 °F 29.82 in Calm     59 % 0.00 in
23:31 79.4 °F 64.3 °F 29.82 in Calm     60 % 0.00 in
23:36 79.4 °F 63.8 °F 29.82 in Calm     59 % 0.00 in
23:41 79.3 °F 64.2 °F 29.82 in Calm     60 % 0.00 in
23:46 79.1 °F 63.1 °F 29.82 in Calm     58 % 0.00 in
23:51 79.2 °F 63.6 °F 29.82 in Calm     59 % 0.00 in
23:56 79.1 °F 64.0 °F 29.82 in Calm     60 % 0.00 in
Park Place, Exeter, Tulare County, California, USA
Compliments of Weather Underground - 2.75 mb